Theta_e
316 316 316 314 314 314 313 313 312 312 311 311 312 312 312 312 312 312 312 313 313 315 315 315 315 316 311 305 306 318 331 328 316 313 311 309 303 298 293 296 298 297 299 302 303 302 302
315 316 315 315 314 314 314 313 312 312 312 311 311 311 311 311 312 312 312 312 314 314 315 315 315 316 308 298 314 317 318 315 313 311 311 306 301 302 297 297 295 299 299 299 300 299 300
315 315 315 314 313 314 313 312 311 311 311 311 311 311 311 311 311 312 313 313 314 314 314 316 316 314 305 302 314 314 313 310 312 312 306 306 305 301 300 296 300 299 294 297 299 299 298
315 315 315 315 313 314 312 312 311 311 311 310 310 310 310 311 311 312 313 314 314 314 317 317 316 310 302 314 311 310 312 311 312 310 307 307 306 300 296 299 298 294 292 287 295 300 301
314 314 315 315 313 314 312 312 311 311 311 311 310 311 311 311 311 312 313 313 314 317 318 317 309 306 304 314 307 309 310 309 310 310 308 310 302 297 298 291 288 290 286 289 293 299 299
314 314 314 315 313 312 313 313 312 310 310 310 310 310 310 310 312 312 312 312 314 315 314 314 313 304 310 308 309 309 310 310 308 306 304 301 297 293 291 288 282 287 288 291 291 296 298
313 313 313 313 314 313 312 312 311 311 310 310 310 310 311 312 312 313 310 309 305 305 309 306 309 307 310 311 312 307 310 308 307 301 293 298 291 289 293 295 295 295 293 292 295 299 295
312 313 313 313 313 313 313 312 312 310 310 310 310 310 311 312 312 313 307 306 307 305 299 310 312 312 314 311 305 307 310 301 299 293 297 293 289 297 300 299 296 294 292 290 295 298 295
312 312 312 312 312 313 313 312 312 311 311 310 310 310 310 312 312 307 307 312 312 309 298 303 308 308 308 306 303 304 306 303 298 294 294 291 295 301 299 296 294 292 291 291 291 295 296
312 311 311 312 312 312 312 312 312 311 310 310 309 309 310 310 308 310 309 316 309 312 291 300 304 305 305 305 301 309 309 303 298 294 295 293 298 298 296 295 295 288 296 295 294 290 283
311 311 311 311 311 312 312 312 311 311 310 309 309 309 309 308 305 306 309 309 311 309 285 302 302 308 305 301 304 304 309 304 297 296 296 293 295 294 294 295 297 292 297 294 293 289 286
310 310 311 311 311 311 311 311 311 310 309 309 309 308 308 310 308 310 315 311 309 295 287 298 302 300 299 301 302 304 303 305 303 296 296 295 300 298 296 299 299 299 294 292 290 286 281
310 310 310 310 310 311 311 311 310 310 309 308 308 308 304 308 305 312 313 307 293 289 305 299 298 299 298 297 299 300 298 295 291 287 288 294 295 299 301 295 298 295 288 281 279 278 280
310 310 310 310 310 310 310 310 310 309 308 307 306 306 306 306 311 313 310 299 287 297 299 304 302 300 295 297 297 298 297 294 297 296 292 289 287 297 301 297 294 293 292 285 278 276 282
310 310 310 309 309 310 310 310 309 308 307 305 304 309 308 311 313 313 302 289 292 298 301 299 299 295 294 297 296 296 295 295 296 297 290 288 289 299 299 299 297 293 289 293 287 288 282
310 310 309 309 309 309 309 310 309 308 306 305 300 305 311 318 318 309 297 293 296 301 302 300 292 294 289 292 293 293 293 298 297 300 299 293 287 296 298 299 298 294 297 286 287 280 277
310 310 309 309 309 309 309 310 309 308 305 304 302 304 315 318 314 302 291 294 299 304 302 297 295 293 293 292 292 292 293 298 301 299 299 296 291 291 296 292 290 291 288 289 290 285 280
310 310 309 309 309 308 308 310 309 307 304 301 299 297 314 315 298 299 296 301 300 300 302 299 298 296 294 294 292 293 293 297 302 300 294 297 292 287 290 296 298 294 291 290 285 283 285
311 310 309 309 308 308 308 309 308 307 304 298 295 299 313 310 291 293 299 298 300 299 299 298 296 298 298 293 290 294 295 300 301 299 296 296 289 282 285 288 292 291 291 292 291 289 284
311 310 309 309 308 308 308 309 308 306 304 301 297 296 304 304 302 295 294 295 295 301 299 300 296 296 294 292 295 292 293 297 299 298 308 301 290 287 282 286 289 287 290 291 290 284 284
311 311 310 309 308 308 308 309 308 305 304 302 301 296 298 292 292 294 296 296 294 293 299 298 294 293 292 287 289 289 292 293 296 299 297 293 286 289 290 292 292 290 289 289 287 288 285
311 311 310 309 307 307 307 309 307 305 304 303 294 293 296 292 296 294 294 294 293 294 295 293 291 292 292 288 289 287 290 290 289 292 290 292 285 289 287 290 289 287 289 289 289 290 289
311 311 310 309 307 306 305 307 307 304 304 300 301 300 297 294 293 291 292 294 292 295 295 296 294 291 290 292 294 293 293 292 291 288 287 286 284 281 279 286 286 281 287 289 290 291 292
311 311 310 310 308 306 305 306 306 304 302 300 301 297 292 288 292 292 293 294 293 294 292 295 295 291 295 299 297 295 293 292 292 291 291 286 284 283 279 283 275 286 295 295 290 293 295
311 311 311 310 308 306 305 305 307 303 302 300 300 297 292 288 292 291 293 294 294 295 293 292 293 297 299 295 289 287 288 290 291 295 294 293 287 279 277 276 285 288 293 291 291 290 297
311 311 311 310 309 306 305 305 307 304 302 300 300 301 294 289 289 295 292 293 290 289 289 292 298 301 298 291 288 284 281 289 288 290 297 293 290 282 279 274 273 288 297 300 298 286 296
310 310 311 311 309 307 305 305 305 307 304 301 299 301 294 289 293 295 292 291 293 291 287 290 292 294 298 289 285 283 285 292 284 284 288 286 285 279 279 276 284 294 297 299 284 286 294
309 310 310 310 310 308 306 306 306 306 305 301 299 302 295 291 292 295 297 293 293 292 287 291 290 293 291 287 287 287 285 287 285 289 287 284 282 282 285 282 275 297 296 288 291 293 293
309 309 309 309 309 308 307 306 306 304 306 303 295 303 302 293 292 297 297 298 297 297 292 292 291 291 294 289 289 287 285 286 286 279 294 283 290 287 286 284 294 294 295 294 293 291 291
Wind_Speed
19 19 19 20 20 19 19 19 18 19 18 18 17 17 17 16 16 16 16 16 17 16 16 14 13 12 7 4 10 5 9 7 5 4 8 10 9 6 8 7 9 13 12 15 15 12 12
19 20 20 20 19 19 19 20 19 18 17 18 18 17 17 17 17 17 17 16 15 16 16 14 11 10 4 6 5 14 11 8 9 9 11 8 5 8 4 6 6 7 9 9 8 7 5
19 20 20 19 21 20 20 21 21 20 19 18 17 18 18 18 17 17 17 16 15 15 15 12 8 6 5 14 8 12 11 10 11 11 6 8 8 7 9 10 8 10 9 10 9 7 7
20 20 19 20 22 21 23 23 22 21 21 20 19 18 18 17 17 18 18 17 16 16 13 7 4 4 9 8 14 10 9 8 10 3 6 8 7 6 4 8 11 8 7 6 7 9 14
20 19 19 19 21 21 23 24 23 22 22 21 20 17 18 18 17 17 17 16 18 14 7 3 3 3 8 2 8 7 8 10 9 8 5 8 2 2 7 6 6 6 8 11 16 15 16
20 20 21 20 22 22 22 22 22 23 22 22 21 19 18 18 17 16 16 19 11 11 4 7 8 4 8 8 8 7 8 10 5 2 7 6 3 5 4 3 6 9 8 10 9 6 9
19 20 21 22 22 21 21 22 23 24 24 23 22 20 18 17 16 12 10 3 0 2 5 9 9 6 13 5 4 6 4 6 3 5 5 9 4 7 15 13 13 11 12 8 9 10 10
19 20 20 22 23 22 23 22 22 24 24 24 23 22 21 17 14 7 3 4 5 7 9 15 21 19 20 4 5 10 8 6 7 8 9 6 9 14 18 13 9 9 12 8 9 11 12
18 19 20 21 22 21 22 23 23 23 23 23 22 22 21 19 17 3 6 8 9 7 4 15 17 19 14 6 10 12 12 10 9 8 10 9 10 14 13 9 7 7 11 7 9 15 12
15 18 19 19 20 21 22 24 24 24 24 23 23 22 20 23 3 5 9 12 6 5 3 7 7 6 9 6 7 16 11 10 7 12 11 10 9 13 12 9 5 6 9 13 12 7 4
15 15 17 18 19 20 22 23 25 25 25 24 23 23 21 10 7 6 6 5 5 4 4 8 7 8 7 10 5 9 12 7 8 10 8 12 11 11 14 13 9 10 8 10 10 7 7
16 17 16 17 18 19 21 22 24 25 25 25 25 22 20 2 4 10 14 8 4 0 7 7 8 10 6 11 13 8 7 7 5 6 10 13 14 12 15 18 17 16 7 8 5 3 10
15 17 15 18 18 18 19 21 25 26 26 27 27 25 9 5 5 10 11 5 2 4 5 6 4 8 12 10 15 15 14 11 9 7 11 17 20 19 18 21 19 12 8 7 7 5 15
15 15 16 15 18 20 20 20 23 25 27 31 30 26 7 7 5 7 5 3 4 10 12 11 10 11 11 13 13 13 11 11 11 15 10 12 12 9 11 14 11 11 18 9 12 6 13
16 14 16 17 17 19 20 21 24 26 28 31 27 2 3 5 11 4 3 2 5 6 16 17 9 10 8 15 13 11 9 6 3 5 8 10 13 11 14 18 13 8 6 7 5 13 3
15 14 15 15 15 19 19 21 25 26 28 31 6 4 5 8 7 3 2 5 6 12 20 12 10 7 14 16 16 14 9 10 16 15 10 7 18 6 11 14 11 8 6 4 2 5 7
13 13 13 14 15 16 18 21 23 25 29 27 1 4 1 8 4 1 3 6 10 16 17 13 14 13 11 14 13 15 13 14 13 13 11 14 9 12 10 8 7 8 7 3 4 4 4
12 13 13 13 14 15 16 18 21 21 27 7 5 4 3 4 0 4 4 5 12 16 17 16 11 11 10 11 12 17 14 12 12 9 13 16 11 13 12 10 11 8 6 6 0 3 2
12 12 12 13 12 13 15 17 19 18 15 6 6 5 3 4 3 3 7 12 10 16 19 20 14 15 7 6 12 12 13 13 13 11 4 5 3 6 7 4 4 3 2 6 5 4 8
13 12 12 11 11 12 13 15 18 22 12 3 4 5 3 1 2 5 8 8 14 12 12 22 13 11 15 14 13 11 13 11 14 13 4 5 6 9 8 12 10 13 12 12 8 4 6
14 12 11 10 10 9 12 13 16 21 25 1 2 4 3 5 8 13 8 13 15 15 9 16 11 13 15 14 14 16 15 14 14 13 4 3 1 5 10 14 16 15 21 18 18 11 12
13 13 12 10 8 7 9 11 13 18 25 2 3 4 6 9 7 12 11 9 11 15 9 13 13 18 17 13 15 15 11 7 5 7 8 3 3 6 12 14 17 20 17 18 14 16 17
14 13 12 11 8 7 9 9 10 14 15 3 3 3 1 4 8 8 8 10 16 10 9 10 18 17 17 15 8 10 10 11 9 8 7 5 3 3 9 9 12 11 12 11 10 15 10
14 14 13 12 10 7 7 8 4 6 8 2 2 1 2 5 8 7 14 16 17 11 16 18 17 19 13 6 9 12 14 16 13 14 10 7 4 3 7 6 3 9 8 1 9 6 1
15 14 14 13 12 9 7 8 4 1 2 1 2 1 1 4 6 13 10 12 13 12 13 14 19 12 3 5 5 7 5 3 7 3 1 2 4 1 1 3 10 9 6 3 5 3 7
15 14 13 13 13 12 9 8 7 6 3 1 2 2 1 3 5 11 11 11 7 6 7 9 13 11 5 2 3 3 4 5 3 2 6 7 5 5 1 2 4 4 8 11 6 6 15
13 13 13 13 14 14 11 10 11 10 7 2 2 2 1 3 8 7 6 3 2 4 6 10 11 7 3 2 4 3 2 6 3 1 6 3 2 2 3 4 5 11 12 13 4 7 18
12 12 13 13 13 16 14 12 11 7 11 4 2 2 3 3 8 11 11 10 3 3 4 8 9 6 3 3 3 4 3 4 4 6 2 1 0 0 1 3 5 10 4 3 5 9 14
12 12 12 12 13 15 15 13 12 11 10 9 2 1 2 3 7 10 18 20 18 16 5 4 5 8 4 3 4 4 3 4 5 3 7 4 3 3 3 6 6 5 2 4 8 11 13
Wind_Direction
4 1 360 359 357 350 347 345 343 341 339 336 333 330 326 322 320 317 314 311 309 309 308 308 314 324 326 226 250 141 177 184 166 185 230 235 261 228 229 233 251 250 247 248 244 250 247
5 0 0 358 354 349 348 347 346 343 339 336 332 329 325 321 317 314 310 307 305 304 306 304 307 315 241 254 142 156 187 168 233 207 264 255 292 308 289 307 302 275 294 288 300 301 305
2 2 359 357 356 352 351 350 347 344 341 336 333 330 325 320 315 309 307 305 305 307 306 299 301 287 262 245 139 174 199 203 222 244 313 312 348 30 339 324 296 327 326 316 298 293 284
359 357 358 358 357 352 352 350 349 345 342 341 337 331 326 319 313 309 308 308 306 303 299 285 269 272 258 252 242 234 195 230 249 232 264 293 311 320 299 285 312 312 311 293 279 284 268
359 356 355 356 357 354 351 348 347 346 344 341 338 332 328 321 315 312 310 304 300 301 293 182 207 230 263 218 202 230 215 235 242 214 223 263 316 277 303 295 303 260 252 252 268 238 240
355 355 356 355 357 354 349 348 346 346 345 343 340 336 330 322 316 316 310 288 286 311 222 188 258 257 262 242 189 222 226 238 275 283 289 219 215 219 272 197 237 252 256 258 257 293 334
352 353 354 355 354 353 349 348 347 345 344 344 341 337 330 322 321 322 332 325 306 191 251 215 186 237 298 103 120 196 255 227 220 279 262 275 206 238 235 233 236 255 269 278 310 325 336
349 350 351 351 351 348 347 347 346 345 342 341 342 340 334 326 318 314 288 263 336 251 289 229 239 252 253 284 233 209 227 225 205 230 252 262 251 241 246 260 272 289 296 299 310 315 299
348 347 348 349 346 344 346 345 344 342 342 340 339 338 336 327 318 263 229 256 297 301 292 290 229 226 234 209 243 257 192 215 223 261 257 240 265 279 267 275 254 277 296 283 266 270 272
345 346 345 344 343 344 344 344 342 341 340 340 337 337 336 329 334 298 262 241 330 51 307 260 166 211 195 186 257 225 243 194 211 242 252 257 264 285 298 287 294 259 271 285 294 333 278
340 345 341 341 342 344 342 342 341 338 336 335 334 332 330 319 299 296 307 336 42 50 328 137 159 142 184 177 300 189 211 246 237 264 280 274 290 299 297 294 277 243 242 277 287 287 318
335 339 342 339 340 344 341 339 339 336 333 330 327 326 331 11 213 252 294 319 2 331 251 197 139 188 192 210 232 252 178 208 224 253 267 273 274 277 264 275 278 287 263 254 258 272 269
332 332 342 338 338 340 340 339 337 335 331 327 322 313 302 296 239 319 314 346 320 226 334 10 203 200 202 228 223 223 224 201 195 221 239 245 246 250 256 253 256 254 271 273 279 264 258
324 331 331 341 338 337 337 339 338 335 332 326 324 311 225 214 236 293 347 349 255 275 293 347 332 347 330 319 292 281 269 240 225 228 258 272 287 269 299 315 298 214 228 241 250 236 267
316 327 326 336 338 334 335 340 340 337 335 329 319 307 249 229 222 231 52 273 258 295 334 325 334 309 309 326 321 325 334 288 300 315 291 286 281 309 306 309 318 317 290 245 282 283 294
309 318 323 328 336 330 339 343 340 338 339 330 322 286 250 193 182 90 122 255 286 293 292 347 338 332 322 318 320 329 323 325 330 327 337 313 310 259 292 302 297 290 269 282 208 240 241
303 310 318 322 328 334 341 344 339 342 341 326 280 314 217 107 88 109 212 239 285 315 353 340 323 297 292 301 300 296 293 304 311 340 334 324 299 300 300 283 293 330 327 317 48 323 288
300 303 310 316 324 331 341 335 336 349 343 12 323 313 223 101 69 221 220 255 345 348 354 347 343 337 328 333 319 312 304 307 329 339 327 281 276 286 268 276 290 292 69 73 282 302 299
293 297 304 310 320 329 337 336 337 349 9 321 314 268 255 107 262 304 329 343 338 355 347 323 315 313 286 305 309 306 302 307 310 314 244 20 301 309 319 328 344 82 210 161 161 209 231
286 289 293 300 312 328 336 337 336 334 351 315 295 309 340 319 330 10 342 326 335 343 320 313 334 352 352 333 321 313 315 329 332 328 338 260 243 205 256 273 289 297 303 290 183 190 264
281 281 280 288 305 324 333 336 340 340 336 59 268 316 29 337 331 322 314 326 322 330 332 333 336 337 325 321 313 303 311 322 327 321 8 90 304 309 292 301 293 268 269 283 281 269 225
270 273 273 272 282 308 326 336 347 345 335 330 3 348 340 305 311 323 315 306 327 329 333 313 323 332 320 307 308 320 330 328 274 335 322 342 240 261 264 270 275 281 286 280 278 295 286
270 267 264 261 260 280 311 329 353 360 345 13 339 27 84 281 297 286 288 332 327 359 302 322 327 313 297 299 319 300 283 268 253 270 276 253 225 315 282 285 304 299 282 304 317 306 319
269 265 258 252 244 248 286 310 343 23 26 322 299 322 291 272 279 279 305 310 297 327 296 298 279 275 294 323 296 281 261 258 246 246 228 231 250 229 279 338 272 251 63 179 193 296 48
276 268 259 249 236 230 257 282 248 160 38 345 313 331 276 276 294 296 277 293 318 304 281 281 293 297 305 344 307 303 293 253 199 172 287 128 179 287 157 226 272 295 12 342 43 50 75
283 278 266 250 236 222 241 263 265 204 198 235 259 262 126 292 246 319 324 301 313 310 291 268 340 301 261 257 267 268 281 330 105 26 353 77 59 137 344 229 264 38 14 323 272 239 8
282 277 271 261 239 225 231 240 254 208 199 193 275 284 145 265 267 302 275 291 301 301 278 298 342 311 342 284 296 252 284 204 264 32 179 193 207 195 230 253 287 24 4 325 301 325 335
282 279 274 265 245 228 226 233 238 242 198 176 254 218 171 246 284 262 289 268 233 240 271 323 321 8 316 322 316 339 321 320 0 327 11 248 305 112 255 252 291 21 329 24 310 320 328
280 278 274 268 251 231 226 228 221 237 217 188 250 212 181 230 268 302 286 268 254 249 283 257 291 294 336 339 6 330 314 303 333 289 22 27 112 222 200 243 72 12 74 38 353 322 324